This is the latest recevied weather packets stored in our database for station/object SR9SMR. If no packets are shown the sender has not sent any weather packets the latest 1 day(s).
| Time | Temp. | Humidity | Pressure | Rain* | Wind** | Luminosity | Snow |
|---|---|---|---|---|---|---|---|
| 1777964934 | 15.56° C | 100% | 896.5 hPa | - | 12.52 m/s, 216° | - | - |
| 1777964813 | 15.56° C | 100% | 896.6 hPa | - | 12.52 m/s, 220° | - | - |
| 1777964750 | 15.56° C | 100% | 896.7 hPa | - | 12.52 m/s, 220° | - | - |
| 1777964526 | 15.56° C | 100% | 897 hPa | - | 12.52 m/s, 221° | - | - |
| 1777964161 | 15° C | 100% | 896.7 hPa | - | 10.73 m/s, 217° | - | - |
| 1777963850 | 15° C | 100% | 896.8 hPa | - | 11.18 m/s, 213° | - | - |
| 1777963539 | 15° C | 100% | 896.5 hPa | - | 11.62 m/s, 214° | - | - |
| 1777963444 | 15° C | 100% | 896.1 hPa | - | 11.18 m/s, 215° | - | - |
| 1777963139 | 15° C | 100% | 896.6 hPa | - | 9.83 m/s, 210° | - | - |
| 1777962980 | 15° C | 100% | 896.3 hPa | - | 11.62 m/s, 210° | - | - |
| 1777962676 | 15° C | 100% | 896.7 hPa | - | 10.73 m/s, 215° | - | - |
| 1777962516 | 15° C | 100% | 896.5 hPa | - | 12.07 m/s, 212° | - | - |
| 1777962212 | 15° C | 100% | 896.8 hPa | - | 11.18 m/s, 207° | - | - |
| 1777962116 | 15° C | 100% | 896.5 hPa | - | 11.18 m/s, 209° | - | - |
| 1777961814 | 15° C | 100% | 896.4 hPa | - | 12.52 m/s, 208° | - | - |
| 1777961711 | 15° C | 100% | 896.7 hPa | - | 12.07 m/s, 210° | - | - |
| 1777961381 | 14.44° C | 100% | 896.7 hPa | - | 11.62 m/s, 206° | - | - |
| 1777961252 | 14.44° C | 100% | 896.7 hPa | - | 11.18 m/s, 205° | - | - |
| 1777961059 | 14.44° C | 100% | 896.6 hPa | - | 12.52 m/s, 206° | - | - |
| 1777960749 | 14.44° C | 100% | 896.7 hPa | - | 11.62 m/s, 211° | - | - |
| 1777960597 | 14.44° C | 100% | 896.5 hPa | - | 12.07 m/s, 209° | - | - |
* Rain since midnight (hover to see other rain measurements)
** Current wind speed in m/s (hover to see current wind gust speed)